CST,Max TemperatureF,Mean TemperatureF,Min TemperatureF,Max Dew PointF,MeanDew PointF,Min DewpointF,Max Humidity, Mean Humidity, Min Humidity, Max Sea Level PressureIn, Mean Sea Level PressureIn, Min Sea Level PressureIn, Max VisibilityMiles, Mean VisibilityMiles, Min VisibilityMiles, Max Wind SpeedMPH, Mean Wind SpeedMPH, Max Gust SpeedMPH,PrecipitationIn, CloudCover, Events, WindDirDegrees
2013-1-1,14,2,-11,9,-1,-18,81,75,53,30.31,30.17,29.99,10,9,2,8,2,17,0.00,4,Snow,229
2013-1-2,17,16,14,14,10,9,88,80,73,30.09,30.01,29.92,9,6,2,10,3,,0.00,8,Snow,185
2013-1-3,19,14,10,15,10,4,85,76,62,30.20,30.11,29.95,10,8,2,8,3,,0.00,5,Snow,237
2013-1-4,33,20,7,17,10,2,88,76,52,30.17,30.07,29.94,10,10,8,6,3,,0.00,0,,213
2013-1-5,28,14,1,18,9,-4,87,77,56,30.15,29.99,29.88,10,9,5,8,1,,0.00,2,,160
2013-1-6,25,18,12,19,12,4,85,73,57,30.20,30.12,29.92,10,10,9,8,3,,0.00,4,Snow,197
2013-1-7,36,26,16,22,17,6,88,70,57,30.03,29.92,29.86,10,10,3,13,8,24,0.00,0,,201
2013-1-8,35,18,1,27,16,-3,88,76,64,30.04,29.92,29.74,10,9,2,10,3,22,0.00,2,,179
2013-1-9,34,25,14,25,20,10,85,69,54,30.38,30.09,29.80,10,10,7,12,7,26,0.00,3,,250
2013-1-10,42,32,21,32,20,13,89,62,31,30.39,30.12,29.75,10,9,5,15,6,23,0.23,3,Rain,160
2013-1-11,42,38,34,40,35,33,97,93,92,29.78,29.54,29.38,10,4,1,13,7,20,0.05,8,Rain,162
2013-1-12,43,26,10,41,20,1,93,77,62,30.04,29.66,29.34,10,8,2,15,8,29,0.00,8,Rain-Snow,228
2013-1-13,10,6,1,5,0,-3,85,75,64,30.25,30.08,29.97,10,7,1,7,3,,0.00,6,Snow,264
2013-1-14,10,4,-2,2,-2,-6,84,77,61,30.41,30.36,30.25,10,10,5,7,2,,0.00,4,,229
2013-1-15,26,18,9,15,8,2,84,67,47,30.32,30.16,29.86,10,10,9,10,6,21,0.00,3,,202
2013-1-16,28,19,8,24,16,-4,89,75,45,30.22,29.71,29.55,10,6,0,13,8,24,0.05,6,Fog-Snow,228
2013-1-17,10,0,-9,0,-6,-15,79,68,53,30.43,30.35,30.27,10,8,1,7,3,,0.00,6,Snow,258
2013-1-18,30,14,-2,23,13,-7,85,77,69,30.36,29.92,29.70,10,8,1,12,4,17,0.02,7,Snow,163
2013-1-19,34,18,1,26,10,-9,93,73,50,30.13,29.78,29.55,10,7,1,17,5,33,0.00,7,Snow,280
2013-1-20,1,-4,-9,-6,-10,-16,80,69,55,30.38,30.27,30.14,10,9,3,8,4,,0.00,5,,273
2013-1-21,-6,-12,-18,-14,-22,-26,76,62,45,30.33,30.24,30.13,10,10,4,12,5,18,0.00,5,,284
2013-1-22,-2,-12,-23,-16,-21,-31,78,65,49,30.42,30.37,30.30,10,10,10,8,1,,0.00,0,,226
2013-1-23,10,-2,-15,1,-9,-21,85,70,50,30.64,30.21,30.05,10,5,0,10,2,23,0.00,7,Snow,291
2013-1-24,57,18,-20,46,-8,-27,82,70,52,30.74,30.50,30.25,10,8,1,12,3,,0.00,5,Snow,151
2013-1-25,17,10,1,10,5,-3,85,75,64,30.30,30.00,29.86,10,5,1,9,5,,0.02,8,Snow,202
2013-1-26,19,3,-13,8,-2,-19,83,68,57,30.42,30.33,30.23,10,10,8,12,2,,0.00,4,,154
2013-1-27,32,26,19,27,21,9,93,77,54,30.22,29.96,29.82,10,4,0,12,6,16,0.22,7,Fog-Snow,131
2013-1-28,35,28,21,29,25,19,96,87,75,29.93,29.84,29.71,10,5,1,6,0,,0.02,6,Snow,162
2013-1-29,33,30,27,32,28,21,96,87,74,29.73,29.60,29.50,10,6,1,7,2,,0.05,8,Rain,79
2013-1-30,25,16,6,18,10,1,86,76,70,29.71,29.61,29.53,10,5,1,8,5,18,0.00,8,Snow,310
2013-1-31,7,2,-6,1,-3,-13,85,71,56,30.21,29.85,29.61,10,5,1,9,5,17,0.00,7,Snow,293